COSMOS 1275 DEB

Satellite information

Favourite Embed

Satellite Type and Status

DEBRISIN ORBIT

Key statistics

Satellite COSMOS 1275 DEB at a glance.

Uptime

16207

Days in orbit

Revolutions

≈ 14.1

Per day

Orbit

LEO

Low Earth Orbit

Inclination

82.8

Latest

Satellite identification and parameters

Extended collection of information and parameters for COSMOS 1275 DEB.

Object identification

Identified? True

Debris? True

Object name: COSMOS 1275 DEB

International designator: 1981-053HR

Object number (NORAD): 14358

Object ID (CCSDS): 14358

Country: COMMONWEALTH OF INDEPENDENT STATES (CIS)

Current information (Y/N): Y

RCS size: SMALL

Orbital parameters

Period: 102.132 minutes

Inclination: 82.8044 deg

SMA: 7237.731 km

Apoapsis: 984.333 km

Periapsis: 734.858 km

RAAN: 149.8588 deg

Eccentricy: 0.01723434

Argument of periapsis: 43.8692 deg

Mean anomaly: 344.9349 deg

Mean motion: 14.09935179 rev/day

Mean motion (dot): 0.00006137 rev/day2

B* drag term: 0.003026208 1/REarth

Two-line elements (TLE)

Creation date: Oct. 18, 2025, 2:17 a.m.

Reference frame: TEME

Reference center: EARTH

Epoch: Oct. 17, 2025, 1:43 p.m. UTC

TLE line 0: 0 COSMOS 1275 DEB

TLE line 1: 1 14358U 81053HR 25290.57163645 .00006137 00000-0 30262-2 0 9995

TLE line 2: 2 14358 82.8044 149.8588 0172343 43.8692 344.9349 14.09935179148775

Live tracking on map

Real-time ground track for satellite COSMOS 1275 DEB.

In-orbit conjunctions

A list of the most updated potential collisions computed for object COSMOS 1275 DEB.

Target Orbit TCA Probability of collision Miss distance Type
COSMOS 2298 LEO 2025-08-07 20:24:56 0.0002920696 775.0 (m) PAYLOAD
IRS B3 SSO 2025-03-13 00:40:25 0.000253593 986.0 (m) PAYLOAD

Associated space launch

Navigation satellite providing location information for the Tsiklon-B navigation system

COSMOS 1275 DEB was lifted into orbit during the mission ‘Kosmos-3M | Parus 27’, on board a Kosmos-3M space rocket.

The launch took place on June 4, 1981, 3:41 p.m. from 132/2.

For more information about the launch, click the button.

Launch to space Kosmos-3M | Parus 27
Kosmos-3M | Parus 27

Agency: N/A

Status: Launch Successful

Launch date: June 4, 1981, 3:41 p.m. UTC

Rocket: Kosmos-3M

Launch pad: 132/2

Location: Plesetsk Cosmodrome, Russian Federation

...

Latest news about this satellite

There are no fresh news available about this satellite. Check back as we update our databases every day.


Newsletter sign-up

Weekly statistics, charts and insights to help you stay on top of the space industry.